Date String (YYYY-MM-DD hh:mm:ss) UTC,Instrument flags,Ambient pressure (hPa),Sample flow (lpm),Bypass flow (lpm),Sample temperature (°C),Ambient temperature (°C),ASC tube jacket temperature (°C),LED temperature (°C),Box temperature (°C),Sample RH (%),Span deviation,Mass concentration (μg/m³),Mass concentration (μg/m³),Mass concentration (μg/m³)
DateTimeUTC,F1_M11,P_M11,Q1_M11,Q2_M11,T1_M11,T2_M11,T3_M11,T4_M11,T5_M11,U1_M11,ZSPAN_M11,X0_M11,X2_M11,X1_M11
2022-08-16 03:00:00,,0830.9,5.00,0.00,32.1,29.1,00.0,40.3,32.6,34.2,0000.0,0006.31,0003.40,0002.65
2022-08-16 03:01:00,,0830.9,5.00,0.00,32.1,29.1,00.0,40.3,32.6,34.2,0000.0,0005.58,0003.40,0002.63
2022-08-16 03:02:00,,0830.9,5.01,0.00,32.0,29.1,00.0,40.3,32.6,34.4,0000.0,0005.52,0003.37,0002.59
2022-08-16 03:03:00,,0830.9,5.00,0.00,32.0,29.1,00.0,40.3,32.6,34.0,0000.0,0005.35,0003.33,0002.57
2022-08-16 03:04:00,,0830.9,5.00,0.00,31.9,28.6,00.0,40.2,32.5,33.4,0000.0,0005.27,0003.30,0002.54
2022-08-16 03:05:00,,0830.9,5.00,0.00,31.8,28.0,00.0,40.2,32.3,33.4,0000.0,0005.29,0003.28,0002.52
2022-08-16 03:06:00,,0830.9,5.01,0.00,31.7,27.8,00.0,40.1,32.2,33.5,0000.0,0005.34,0003.24,0002.50
2022-08-16 03:07:00,,0830.9,5.00,0.00,31.5,27.8,00.0,40.1,32.1,34.1,0000.0,0005.36,0003.20,0002.48
2022-08-16 03:08:00,,0830.9,4.99,0.00,31.4,27.9,00.0,40.0,32.1,34.6,0000.0,0005.58,0003.20,0002.46
2022-08-16 03:09:00,,0830.9,4.99,0.00,31.4,28.0,00.0,40.0,32.2,34.9,0000.0,0006.58,0003.18,0002.45
2022-08-16 03:10:00,,0830.9,5.00,0.00,31.4,28.1,00.0,39.9,32.2,35.3,0000.0,0006.55,0003.17,0002.45
2022-08-16 03:11:00,,0830.9,5.00,0.00,31.5,28.2,00.0,39.9,32.3,34.9,0000.0,0007.44,0003.13,0002.42
2022-08-16 03:12:00,,0830.9,5.00,0.00,31.7,28.3,00.0,39.9,32.4,34.6,0000.0,0007.50,0003.13,0002.41
2022-08-16 03:13:00,,0830.9,5.01,0.00,31.8,28.4,00.0,39.8,32.4,34.7,0000.0,0007.54,0003.14,0002.41
2022-08-16 03:14:00,,0830.9,5.00,0.00,31.8,28.5,00.0,39.9,32.4,34.8,0000.0,0007.51,0003.14,0002.42
2022-08-16 03:15:00,,0830.9,5.00,0.00,31.8,28.6,00.0,39.9,32.4,34.5,0000.0,0008.17,0003.17,0002.43
2022-08-16 03:16:00,,0830.9,5.01,0.00,31.8,28.7,00.0,39.9,32.4,34.6,0000.0,0008.38,0003.19,0002.47
2022-08-16 03:17:00,,0830.9,4.99,0.00,31.7,28.7,00.0,39.9,32.4,34.6,0000.0,0008.27,0003.21,0002.51
2022-08-16 03:18:00,,0831.0,5.01,0.00,31.7,28.8,00.0,39.9,32.4,34.8,0000.0,0008.24,0003.24,0002.57
2022-08-16 03:19:00,,0831.0,5.00,0.00,31.7,28.8,00.0,39.9,32.4,34.7,0000.0,0008.23,0003.25,0002.62
2022-08-16 03:20:00,,0831.0,4.99,0.00,31.6,28.9,00.0,39.9,32.4,34.8,0000.0,0007.69,0003.25,0002.65
2022-08-16 03:21:00,,0831.0,5.00,0.00,31.6,28.9,00.0,39.9,32.4,34.6,0000.0,0007.68,0003.27,0002.70
2022-08-16 03:22:00,,0831.0,4.99,0.00,31.5,29.0,00.0,39.9,32.4,34.5,0000.0,0006.97,0003.31,0002.75
2022-08-16 03:23:00,,0831.0,5.01,0.00,31.5,29.0,00.0,39.9,32.4,34.6,0000.0,0006.85,0003.32,0002.80
2022-08-16 03:24:00,,0831.1,4.99,0.00,31.5,29.0,00.0,39.9,32.4,34.7,0000.0,0007.01,0003.34,0002.85
2022-08-16 03:25:00,,0831.0,5.00,0.00,31.4,29.1,00.0,39.9,32.4,34.6,0000.0,0006.91,0003.33,0002.88
2022-08-16 03:26:00,,0831.0,5.00,0.00,31.4,29.1,00.0,39.9,32.4,34.7,0000.0,0005.72,0003.33,0002.91
2022-08-16 03:27:00,,0831.0,5.00,0.00,31.4,29.1,00.0,39.9,32.4,34.8,0000.0,0005.56,0003.35,0002.93
2022-08-16 03:28:00,,0831.0,5.00,0.00,31.4,29.1,00.0,39.9,32.5,34.6,0000.0,0005.60,0003.36,0002.93
2022-08-16 03:29:00,,0831.0,5.01,0.00,31.3,28.6,00.0,39.8,32.3,34.6,0000.0,0005.75,0003.39,0002.94
2022-08-16 03:30:00,,0831.0,4.99,0.00,31.2,28.1,00.0,39.8,32.1,34.6,0000.0,0005.55,0003.38,0002.95
2022-08-16 03:31:00,,0831.0,5.00,0.00,31.1,27.8,00.0,39.7,32.0,34.4,0000.0,0005.62,0003.40,0002.96
2022-08-16 03:32:00,,0831.0,5.01,0.00,30.9,27.8,00.0,39.7,31.9,34.8,0000.0,0005.60,0003.39,0002.95
2022-08-16 03:33:00,,0830.9,4.99,0.00,30.9,27.8,00.0,39.6,31.9,34.8,0000.0,0005.46,0003.37,0002.95
2022-08-16 03:34:00,,0831.0,5.00,0.00,30.8,27.9,00.0,39.6,32.0,34.8,0000.0,0005.36,0003.34,0002.93
2022-08-16 03:35:00,,0830.9,5.01,0.00,30.8,28.1,00.0,39.5,32.0,35.0,0000.0,0005.09,0003.32,0002.92
2022-08-16 03:36:00,,0830.9,5.00,0.00,30.9,28.2,00.0,39.5,32.1,35.0,0000.0,0005.21,0003.34,0002.92
2022-08-16 03:37:00,,0831.0,5.00,0.00,31.1,28.3,00.0,39.5,32.2,34.7,0000.0,0005.23,0003.32,0002.88
2022-08-16 03:38:00,,0831.0,5.00,0.00,31.3,28.4,00.0,39.5,32.3,34.5,0000.0,0005.19,0003.28,0002.86
2022-08-16 03:39:00,,0831.0,4.99,0.00,31.3,28.5,00.0,39.5,32.3,34.2,0000.0,0005.21,0003.27,0002.84
2022-08-16 03:40:00,,0831.0,5.00,0.00,31.4,28.6,00.0,39.5,32.2,34.0,0000.0,0004.94,0003.22,0002.81
2022-08-16 03:41:00,,0831.0,5.00,0.00,31.4,28.7,00.0,39.5,32.2,33.6,0000.0,0004.79,0003.19,0002.76
2022-08-16 03:42:00,,0831.1,5.00,0.00,31.4,28.7,00.0,39.6,32.2,33.7,0000.0,0004.58,0003.16,0002.73
2022-08-16 03:43:00,,0831.1,5.00,0.00,31.3,28.8,00.0,39.6,32.2,33.8,0000.0,0004.50,0003.14,0002.70
2022-08-16 03:44:00,,0831.0,5.00,0.00,31.3,28.8,00.0,39.6,32.2,33.5,0000.0,0004.47,0003.13,0002.68
2022-08-16 03:45:00,,0831.0,5.00,0.00,31.3,28.9,00.0,39.6,32.2,33.5,0000.0,0004.54,0003.12,0002.68
2022-08-16 03:46:00,,0831.0,5.01,0.00,31.3,28.9,00.0,39.6,32.2,33.4,0000.0,0005.20,0003.15,0002.66
2022-08-16 03:47:00,,0831.1,5.00,0.00,31.2,28.9,00.0,39.6,32.3,33.5,0000.0,0005.19,0003.14,0002.66
2022-08-16 03:48:00,,0831.1,5.01,0.00,31.2,28.9,00.0,39.6,32.3,33.5,0000.0,0005.21,0003.16,0002.66
2022-08-16 03:49:00,,0831.0,5.01,0.00,31.2,29.0,00.0,39.7,32.3,33.6,0000.0,0005.06,0003.17,0002.65
2022-08-16 03:50:00,,0831.1,5.01,0.00,31.2,29.0,00.0,39.7,32.3,33.9,0000.0,0004.91,0003.14,0002.64
2022-08-16 03:51:00,,0831.0,5.00,0.00,31.1,29.0,00.0,39.7,32.3,34.1,0000.0,0004.84,0003.13,0002.63
2022-08-16 03:52:00,,0831.0,5.00,0.00,31.1,29.0,00.0,39.7,32.3,33.9,0000.0,0004.79,0003.11,0002.62
2022-08-16 03:53:00,,0831.0,5.00,0.00,31.1,29.1,00.0,39.7,32.3,34.0,0000.0,0005.17,0003.13,0002.62
2022-08-16 03:54:00,,0831.1,4.99,0.00,31.1,29.1,00.0,39.7,32.3,34.0,0000.0,0006.04,0003.15,0002.61
2022-08-16 03:55:00,,0831.0,5.00,0.00,31.1,29.1,00.0,39.6,32.3,34.0,0000.0,0006.12,0003.16,0002.61
2022-08-16 03:56:00,,0831.0,5.00,0.00,31.0,29.0,00.0,39.6,32.3,34.5,0000.0,0006.08,0003.17,0002.60
2022-08-16 03:57:00,,0831.0,4.99,0.00,31.0,28.4,00.0,39.5,32.1,34.7,0000.0,0005.42,0003.14,0002.59
2022-08-16 03:58:00,,0831.1,5.01,0.00,30.9,27.9,00.0,39.5,32.0,34.6,0000.0,0005.47,0003.14,0002.59
2022-08-16 03:59:00,,0831.0,5.01,0.00,30.8,27.7,00.0,39.4,31.9,34.5,0000.0,0005.44,0003.11,0002.60
